Location: Newark
(34.0131°N, 4.3314°W)
Time: 20:26:09
(UTC+00:00)

deb Explorer IX - All Passes

Search period start: 21 October 2019 00:00
Search period end: 31 October 2019 00:00
Orbit: 545 x 1106 km, 38.8° (Epoch: 20 October)

Date Brightness Start Highest point End Pass type
(mag) Time Alt. Az. Time Alt. Az. Time Alt. Az.
21 Oct - 11:00:20 10° S 11:03:48 21° SE 11:07:38 10° E daylight
21 Oct - 12:45:15 10° WSW 12:50:13 82° SSE 12:56:08 10° ENE daylight
21 Oct - 14:32:15 10° W 14:37:41 56° N 14:44:04 10° ENE daylight
21 Oct - 16:19:26 10° WNW 16:25:32 66° NNE 16:32:31 10° E daylight
21 Oct - 18:06:33 10° WNW 18:13:05 62° SSW 18:20:15 10° SE visible
21 Oct - 19:55:05 10° W 20:00:02 20° SW 20:05:07 10° S visible
22 Oct - 10:38:35 10° S 10:41:57 21° SE 10:45:39 10° E daylight
22 Oct - 12:23:31 10° WSW 12:28:21 83° SSE 12:34:05 10° ENE daylight
22 Oct - 14:10:31 10° W 14:15:46 55° N 14:21:59 10° ENE daylight
22 Oct - 15:57:38 10° WNW 16:03:34 66° NNE 16:10:25 10° E daylight
22 Oct - 17:44:41 10° WNW 17:51:04 61° SSW 17:58:09 10° SE visible
22 Oct - 19:33:14 10° W 19:38:01 20° SW 19:42:57 10° S visible
23 Oct - 10:16:49 10° S 10:20:05 20° SE 10:23:41 10° E daylight
23 Oct - 12:01:48 10° WSW 12:06:30 85° SSE 12:12:02 10° ENE daylight
23 Oct - 13:48:47 10° W 13:53:53 54° N 13:59:54 10° ENE daylight
23 Oct - 15:35:50 10° WNW 15:41:36 66° NNE 15:48:20 10° E daylight
23 Oct - 17:22:51 10° WNW 17:29:03 59° SSW 17:36:03 10° SE daylight
23 Oct - 19:11:25 10° W 19:15:59 19° SW 19:20:46 10° S visible
24 Oct - 09:55:03 10° S 09:58:16 20° SE 10:01:45 10° E daylight
24 Oct - 11:40:06 10° WSW 11:44:39 86° SSE 11:50:01 10° ENE daylight
24 Oct - 13:27:04 10° W 13:32:00 53° N 13:37:50 10° ENE daylight
24 Oct - 15:14:04 10° WNW 15:19:40 66° NNE 15:26:15 10° E daylight
24 Oct - 17:01:00 10° WNW 17:07:04 58° SSW 17:13:56 10° SE daylight
24 Oct - 18:49:38 10° W 18:53:59 18° SW 18:58:33 10° S visible
25 Oct - 09:33:16 10° S 09:36:26 20° SE 09:39:50 10° E daylight
25 Oct - 11:18:22 10° WSW 11:22:50 88° SSE 11:28:00 10° ENE daylight
25 Oct - 13:05:21 10° W 13:10:08 51° N 13:15:47 10° ENE daylight
25 Oct - 14:52:19 10° WNW 14:57:45 66° NNE 15:04:09 10° E daylight
25 Oct - 16:39:13 10° WNW 16:45:05 56° SSW 16:51:49 10° SE daylight
25 Oct - 18:27:53 10° WSW 18:31:59 17° SW 18:36:18 10° S visible
26 Oct - 09:11:29 10° SSW 09:14:37 20° SE 09:17:56 10° E daylight
26 Oct - 10:56:39 10° WSW 11:01:00 89° S 11:06:01 10° ENE daylight
26 Oct - 12:43:39 10° W 12:48:17 50° N 12:53:44 10° ENE daylight
26 Oct - 14:30:34 10° WNW 14:35:50 66° NNE 14:42:04 10° E daylight
26 Oct - 16:17:25 10° WNW 16:23:07 54° SSW 16:29:41 10° SE daylight
26 Oct - 18:06:10 10° WSW 18:09:59 16° SW 18:14:02 10° S visible
27 Oct - 08:49:41 10° SSW 08:52:48 21° SE 08:56:04 10° E daylight
27 Oct - 10:34:56 10° WSW 10:39:12 89° NNW 10:44:03 10° ENE daylight
27 Oct - 12:21:56 10° WNW 12:26:27 49° N 12:31:42 10° ENE daylight
27 Oct - 14:08:50 10° WNW 14:13:57 66° NNE 14:20:00 10° E daylight
27 Oct - 15:55:39 10° WNW 16:01:09 52° SSW 16:07:33 10° SE daylight
27 Oct - 17:44:30 10° WSW 17:48:01 15° SW 17:51:45 10° S visible
28 Oct - 08:27:53 10° SSW 08:30:59 21° SE 08:34:13 10° E daylight
28 Oct - 10:13:13 10° WSW 10:17:24 87° NNW 10:22:07 10° ENE daylight
28 Oct - 12:00:14 10° WNW 12:04:37 48° N 12:09:42 10° ENE daylight
28 Oct - 13:47:06 10° WNW 13:52:04 66° NNE 13:57:56 10° E daylight
28 Oct - 15:33:54 10° WNW 15:39:13 50° SSW 15:45:26 10° SE daylight
28 Oct - 17:22:53 10° WSW 17:26:03 14° SW 17:29:24 10° S daylight
29 Oct - 08:06:03 10° SSW 08:09:10 21° SE 08:12:24 10° E daylight
29 Oct - 09:51:29 10° WSW 09:55:37 85° NNW 10:00:11 10° ENE daylight
29 Oct - 11:38:32 10° WNW 11:42:48 47° N 11:47:42 10° ENE daylight
29 Oct - 13:25:22 10° WNW 13:30:11 66° NNE 13:35:53 10° E daylight
29 Oct - 15:12:09 10° WNW 15:17:18 48° SSW 15:23:18 10° SE daylight
29 Oct - 17:01:19 10° WSW 17:04:05 13° SW 17:07:01 10° SSW daylight
30 Oct - 07:44:11 10° SSW 07:47:22 22° SE 07:50:36 10° E daylight
30 Oct - 09:29:44 10° WSW 09:33:50 83° NNW 09:38:17 10° ENE daylight
30 Oct - 11:16:50 10° WNW 11:21:00 46° N 11:25:44 10° ENE daylight
30 Oct - 13:03:39 10° WNW 13:08:20 66° NNE 13:13:51 10° E daylight
30 Oct - 14:50:25 10° WNW 14:55:23 46° SSW 15:01:12 10° SE daylight
30 Oct - 16:39:51 10° WSW 16:42:09 12° SW 16:44:34 10° SSW daylight
